Location: Newark
(43.4306°N, 0.3089°E)
Time: 04:49:20
(UTC+00:00)

A-11 Canister half - Pass Details

Date: 25 August 2019
Orbit: 1514 x 1686 km, 47.2° (Epoch: 15 September)

Event Time Altitude Azimuth Distance (km) Brightness Sun altitude
Rises 23:05:40 0° 295° (WNW) 4,787 12.1 -34.5°
Reaches altitude 10° 23:08:46 10° 292° (WNW) 3,823 11.4 -34.7°
Enters shadow 23:17:21 58° 238° (WSW) 1,874 9.2 -35.1°
